Location: B?ogocice
(50.2413°N, 20.2361°E)
Time: 16:53:53
(UTC+00:00)

SAR-Lupe-4 - Pass Details

Date: 22 September 2024
Orbit: 476 x 483 km, 98.1° (Epoch: 03 October)

Event Time Altitude Azimuth Distance (km) Brightness Sun altitude
Rises 02:41:30 0° 11° (N) 2,554 7.7 -17.1°
Reaches altitude 10° 02:43:35 10° 8° (N) 1,668 6.7 -16.8°
Maximum altitude 02:47:07 60° 288° (WNW) 554 3.5 -16.3°
Enters shadow 02:48:36 31° 220° (SW) 864 4.3 -16.0°
